EHI
33 31 28 26 23 18 15 16 15 9 2 0 1 2 2 2 1 0 0 0 0 0 0 0 0 0 0 1 0 0 0 0 0 0 0 0 0 0 0 0 0 0 0
28 27 25 23 20 16 14 14 11 5 1 0 0 1 1 1 1 0 0 0 0 0 0 0 0 0 0 1 0 0 0 0 0 0 0 0 0 0 0 0 0 0 0
23 22 21 20 16 14 12 10 5 2 0 0 0 0 0 0 0 0 0 0 0 0 0 0 0 0 0 0 0 0 0 0 0 0 1 0 0 0 0 0 0 0 0
20 19 19 17 13 12 11 8 4 1 0 0 0 0 0 0 0 0 0 0 0 0 0 0 0 0 0 0 0 0 0 0 0 0 1 0 0 0 0 0 0 0 0
20 18 16 14 11 10 9 7 5 2 0 0 0 0 0 0 0 0 0 0 0 0 0 0 0 0 0 0 0 0 0 0 0 1 1 1 0 0 0 0 0 0 0
20 19 17 13 10 9 9 8 6 3 0 0 0 0 0 0 0 0 0 0 0 0 0 0 0 0 0 0 0 0 0 0 0 1 2 1 0 0 0 0 0 0 0
21 21 18 13 10 9 8 8 5 2 0 0 0 0 0 0 0 0 0 0 0 0 0 0 0 0 0 0 0 0 0 0 0 0 1 1 0 0 0 0 0 0 0
20 19 14 10 9 8 7 6 4 1 0 0 0 0 0 0 0 0 0 0 0 0 0 0 0 0 0 0 0 0 0 0 0 0 0 0 0 0 0 0 0 0 0
16 13 9 6 6 6 6 4 3 1 0 0 0 0 0 0 0 0 0 0 0 0 0 0 0 0 0 0 0 0 0 0 0 0 0 0 0 0 0 0 0 0 0
11 8 4 2 3 4 4 3 2 1 0 0 0 0 0 0 0 0 0 0 0 0 0 0 0 0 0 0 0 0 0 0 0 0 0 0 0 0 0 0 0 0 0
7 4 1 0 1 3 3 3 2 1 0 0 0 0 0 0 0 0 0 0 0 0 0 0 0 0 0 0 0 0 0 0 0 0 0 0 0 0 0 0 0 0 0
3 2 1 0 1 2 3 3 1 0 0 0 0 0 0 0 0 0 0 0 0 0 0 0 0 0 0 0 0 0 0 0 0 0 0 0 0 0 0 0 0 0 0
2 1 0 0 0 2 3 2 1 0 0 0 0 0 0 0 0 0 0 0 0 0 0 0 0 0 0 0 0 0 0 0 0 0 0 0 0 0 0 0 0 0 0
1 0 0 0 0 1 2 1 0 0 0 0 0 0 0 0 0 0 0 0 0 0 0 0 0 0 0 0 0 0 0 0 0 0 0 0 0 0 0 0 0 0 0
0 0 0 0 0 1 1 0 0 0 0 0 0 0 0 0 0 0 0 0 0 0 0 0 0 0 0 0 0 0 0 0 0 0 0 0 0 0 0 0 0 0 0
0 0 0 0 0 0 0 0 0 0 0 0 0 0 0 0 0 0 0 0 0 0 0 0 0 0 0 0 0 0 0 0 0 0 0 0 0 0 0 0 0 0 0
0 0 0 0 0 0 0 0 0 0 0 0 0 0 0 0 0 0 0 0 0 0 0 0 0 0 0 0 0 0 0 0 0 0 0 0 0 0 0 0 0 0 0
0 0 0 0 0 0 0 0 0 0 0 0 0 0 0 0 0 0 0 0 0 0 0 0 0 0 0 0 0 0 0 0 0 0 0 0 0 0 0 0 0 0 0
0 0 0 0 0 0 0 0 0 0 0 0 0 0 0 0 0 0 0 0 0 0 0 0 0 0 0 0 0 0 0 0 0 0 0 0 0 0 0 0 0 0 0
0 0 0 0 0 0 0 0 0 0 0 0 0 0 0 0 0 0 0 0 0 0 0 0 0 0 0 0 0 0 0 0 0 0 0 0 0 0 0 0 0 0 0
0 0 0 0 0 0 0 0 0 0 0 0 0 0 0 0 0 0 0 0 0 0 0 0 0 0 0 0 0 0 0 0 0 0 0 0 0 0 0 0 0 0 0
0 0 0 0 0 0 0 0 0 0 0 0 0 0 0 0 0 0 0 0 0 0 0 0 0 0 0 0 0 0 0 0 0 0 0 0 0 0 0 0 0 0 0
0 0 0 0 0 0 0 0 0 0 0 0 0 0 0 0 0 0 0 0 0 0 0 0 0 0 0 0 0 0 0 0 0 0 0 0 0 0 0 0 0 0 0
0 0 0 0 0 0 0 0 0 0 0 0 0 0 0 0 0 0 0 0 0 0 0 0 0 0 0 0 0 0 0 0 0 0 0 0 0 0 0 0 0 0 0
0 0 0 0 0 0 0 0 0 0 0 0 0 0 0 0 0 0 0 0 0 0 0 0 0 0 0 0 0 0 0 0 0 0 0 0 0 0 0 0 0 0 0
0 0 0 0 0 0 0 0 0 0 0 0 0 0 0 0 0 0 0 0 0 0 0 0 0 0 0 0 0 0 0 0 0 0 0 0 0 0 0 0 0 0 0
Wind_Speed
8 7 8 8 7 5 5 5 5 4 3 2 2 2 2 1 1 1 2 2 2 2 2 1 2 2 1 1 1 0 1 0 1 1 1 2 2 3 2 2 3 4 3
9 8 7 7 7 6 4 4 4 4 3 2 1 2 2 2 1 1 3 3 3 2 3 3 2 2 1 2 2 1 1 1 0 1 1 0 1 3 3 2 3 3 3
12 9 8 6 7 6 4 4 4 4 3 3 3 3 3 2 2 2 2 3 3 3 3 3 2 2 2 1 2 1 1 0 1 0 2 2 2 0 2 3 3 3 3
10 9 8 7 6 5 5 5 4 4 3 4 4 4 3 2 1 0 1 3 3 3 3 3 3 2 1 1 2 2 1 1 1 1 0 1 2 2 1 1 2 3 3
10 9 8 7 6 6 5 5 5 4 4 4 3 4 3 2 1 2 3 3 3 4 4 3 3 2 1 1 1 2 2 1 0 0 0 1 1 1 2 1 0 2 2
10 9 8 7 6 5 5 5 5 4 3 4 4 4 4 3 3 3 3 2 2 3 4 3 3 2 1 1 1 1 2 1 1 0 0 1 1 1 2 2 1 0 1
10 10 10 8 7 6 5 4 5 4 3 4 4 3 3 3 3 2 2 2 2 2 3 3 3 2 2 2 2 2 2 2 1 1 1 1 1 1 2 2 2 1 0
8 9 9 8 8 7 5 5 4 3 3 4 4 4 3 2 2 2 2 2 1 1 2 3 3 3 3 3 3 2 2 2 2 2 1 1 1 1 1 2 3 2 0
8 9 9 7 7 6 5 4 5 4 3 4 4 4 4 3 3 3 2 2 1 1 3 3 3 4 4 3 3 2 2 2 2 2 2 1 1 1 1 1 3 4 2
8 8 7 7 6 5 4 4 4 4 3 4 3 4 4 4 3 3 4 3 3 3 3 3 3 3 3 3 3 2 2 3 2 2 2 2 1 1 1 1 1 2 3
8 7 6 5 6 5 4 4 4 4 4 4 4 4 4 3 4 4 3 3 3 3 3 3 3 3 3 3 3 3 3 3 3 3 3 2 2 2 1 1 1 2 2
8 7 6 6 6 5 4 4 4 4 3 4 4 4 3 4 4 4 3 3 3 3 3 3 3 3 3 3 4 3 4 3 3 3 3 3 2 3 2 1 2 1 2
7 7 6 6 5 5 4 4 4 3 3 4 4 4 3 3 3 3 3 3 3 3 4 4 3 3 4 4 3 3 3 3 3 3 3 2 3 3 2 2 2 1 2
7 7 6 5 5 5 5 4 3 3 3 4 3 3 2 2 2 2 3 3 3 3 4 4 3 3 4 4 3 4 3 3 3 3 3 3 2 2 2 2 2 2 3
7 7 6 5 5 5 4 4 3 3 3 3 3 2 1 2 2 2 2 3 3 4 3 4 4 4 4 3 3 3 3 3 3 3 3 3 3 3 2 2 1 2 3
7 7 6 6 6 5 5 4 3 3 3 3 2 2 2 2 2 2 2 3 3 4 4 4 4 4 3 4 5 3 3 3 3 2 2 2 3 4 5 4 3 3 3
7 7 7 6 6 5 5 4 4 3 3 3 3 3 3 3 2 2 3 3 3 3 4 3 3 4 4 5 5 5 3 3 2 2 2 2 3 3 2 3 4 3 2
7 7 6 5 4 4 4 4 4 4 4 3 3 3 3 3 2 3 2 2 2 2 2 2 2 3 4 5 6 6 4 3 2 2 2 2 2 2 2 2 3 3 2
7 6 6 5 4 4 5 5 4 4 4 4 3 3 4 3 3 2 1 1 1 1 1 1 2 2 3 5 5 5 3 3 3 3 3 2 2 3 3 3 3 3 2
5 5 5 5 5 4 5 5 4 4 4 3 3 3 4 3 2 2 1 1 1 1 1 1 1 1 2 3 4 4 2 3 2 3 3 3 2 3 3 2 2 2 1
6 5 6 5 4 4 5 5 5 4 4 3 3 3 3 3 2 1 1 1 1 1 1 1 2 2 1 2 3 4 2 1 1 2 2 2 3 3 3 2 1 1 1
6 6 5 4 3 4 6 5 4 4 4 4 3 3 2 2 2 2 1 1 1 2 1 1 2 2 2 2 2 2 2 1 1 1 2 3 4 4 3 1 1 1 1
6 5 6 5 4 4 5 5 3 4 4 4 3 2 2 1 1 2 1 1 1 1 0 0 1 2 2 2 3 4 3 2 1 1 3 5 5 4 3 3 3 1 1
6 5 6 6 4 3 4 4 4 4 5 4 3 2 2 1 1 1 1 1 1 1 1 1 1 2 2 2 2 2 2 3 2 2 4 6 5 3 3 3 2 1 1
5 5 6 6 5 4 4 4 4 5 5 3 2 2 1 1 0 1 1 1 2 3 3 3 3 2 2 4 4 2 1 1 2 2 2 2 3 3 3 3 3 2 1
5 5 5 6 5 5 4 4 4 5 5 3 2 2 1 1 1 1 2 3 3 4 4 5 4 3 5 5 4 4 3 3 2 1 1 2 2 2 2 3 3 2 2
Wind_Direction
134 126 116 109 104 96 90 88 85 82 96 106 117 115 102 87 59 41 47 49 46 48 74 67 44 30 31 355 358 30 38 16 95 88 53 34 40 52 50 54 58 47 41
138 133 126 117 108 103 101 93 84 81 83 93 111 114 110 92 82 37 31 34 42 38 58 53 45 24 32 20 13 24 37 335 83 148 140 153 24 34 37 44 57 44 34
152 146 134 123 114 111 111 107 91 77 70 75 82 85 69 56 43 29 19 16 33 36 47 54 56 35 39 26 7 26 73 290 320 127 151 162 193 138 25 34 42 38 36
150 144 137 131 125 119 111 99 90 76 68 75 89 103 108 103 90 76 43 26 32 31 39 49 51 41 38 27 5 36 42 83 351 335 18 155 155 155 143 24 24 36 35
150 145 140 132 122 115 108 98 87 75 71 77 91 97 94 100 83 66 65 50 29 25 27 34 31 35 37 25 23 23 33 59 120 275 321 50 61 107 141 167 345 19 11
146 138 130 121 113 106 99 91 86 74 67 74 77 89 98 97 83 67 66 50 29 17 20 26 21 20 30 23 23 30 32 33 49 51 113 132 133 158 142 156 169 125 340
143 140 135 130 122 113 107 99 92 78 71 74 73 82 91 97 99 100 85 71 41 15 5 21 19 19 25 37 45 49 41 44 57 51 50 94 157 163 147 140 148 134 335
142 142 139 136 130 125 121 114 103 93 83 83 76 68 69 79 88 97 101 88 75 8 9 25 28 24 26 34 42 40 24 42 55 47 45 51 36 111 146 151 147 137 76
147 146 140 136 134 132 129 125 117 103 90 85 79 70 67 74 78 74 68 62 42 37 40 35 33 27 27 29 41 35 20 40 44 37 37 38 8 36 99 145 158 153 158
139 143 137 136 132 131 125 116 117 114 103 88 83 83 69 67 68 65 54 46 33 35 46 39 41 31 26 28 36 28 27 45 33 36 45 30 11 26 36 115 137 140 146
138 138 137 132 128 120 119 117 112 104 96 88 84 78 69 62 59 55 45 43 36 37 43 38 41 39 34 31 41 38 39 49 39 31 43 29 32 35 26 54 84 101 122
136 139 140 131 128 125 123 120 118 113 109 103 93 82 70 63 55 45 35 38 34 32 40 41 46 48 45 40 45 44 40 47 45 39 44 30 42 41 38 62 81 107 125
137 138 140 136 137 132 123 120 120 118 115 109 100 87 71 63 54 44 36 35 35 35 36 45 50 52 47 44 42 47 44 43 48 51 49 33 49 43 40 64 78 99 106
143 142 139 136 132 130 129 129 119 118 121 118 113 104 93 83 71 60 48 42 42 49 45 44 51 52 49 41 39 46 50 46 43 41 46 40 51 54 54 71 78 100 102
149 149 146 141 136 133 135 133 134 128 127 126 124 124 117 98 85 72 55 48 47 55 54 58 49 41 43 32 39 44 55 56 48 37 37 47 62 62 63 93 103 106 101
157 153 152 148 146 146 146 140 139 136 128 131 138 137 120 99 93 84 70 61 51 50 56 56 50 40 31 30 45 54 59 63 64 47 26 36 42 45 54 66 83 112 123
159 159 157 156 155 155 155 150 148 137 121 124 133 134 122 111 106 97 84 71 58 58 55 50 49 39 19 35 46 55 77 73 64 60 41 36 34 32 45 49 51 56 99
155 156 156 156 160 158 151 145 137 132 129 132 131 125 118 111 103 95 88 78 71 69 59 47 36 34 16 30 49 56 74 72 56 50 59 62 19 21 58 66 54 38 32
153 154 154 149 148 152 151 138 134 134 135 137 135 130 128 123 113 101 90 87 86 70 59 44 43 36 358 21 48 63 63 61 37 22 34 57 42 24 63 76 65 40 10
128 134 138 130 132 141 134 129 134 136 140 145 145 141 136 132 135 134 115 87 97 95 68 44 21 33 354 11 49 72 77 59 24 11 10 24 36 31 57 83 85 58 346
129 130 131 132 142 137 128 129 136 149 155 144 133 124 125 138 141 120 98 97 78 67 53 30 354 356 341 1 40 65 83 92 35 10 348 333 359 16 33 83 133 211 261
132 134 132 134 137 132 129 131 149 161 142 128 120 115 113 130 124 109 90 84 84 71 36 23 351 339 341 356 5 31 68 110 106 330 312 306 323 341 348 359 334 23 75
143 139 138 136 136 138 135 140 162 147 131 122 121 117 98 80 110 121 127 84 68 77 21 32 339 324 333 341 0 17 37 54 67 287 294 306 313 328 335 321 326 3 81
145 141 139 142 151 153 145 153 152 137 131 132 137 138 121 74 48 68 150 156 178 193 211 227 264 295 310 314 328 343 360 7 6 337 319 324 326 330 316 318 327 324 204
149 149 152 156 165 160 154 159 151 141 140 145 147 148 151 157 92 352 270 211 231 213 206 219 213 214 255 264 253 241 271 283 300 330 349 1 351 341 338 327 311 304 300
150 151 156 160 166 163 165 167 160 152 150 158 168 170 175 186 183 204 325 312 268 272 246 230 217 225 231 244 251 253 263 275 289 7 332 316 305 290 282 281 288 282 264